User: anonymous   Login
Location: Newark
(39.9581°N, 97.2014°W)
Time: 18:05:15
(UTC+00:00)
Language:

Courier 1B - Orbit

View from above orbital plane
View from above orbital plane
View from above satellite
View from above satellite

Ground track
Ground track

The orbit data is extracted from the following two-line orbital elements,

1    58U 60013A   20052.19457529  .00000111  00000-0  36553-4 0  9993
2    58  28.3288 329.5162 0165055 178.4754 181.6316 13.46321110923330
Epoch (UTC): 21 February 2020 04:40:11
Eccentricity: 0.0165055
inclination: 28.3288°
perigee height: 962 km
apogee height: 1209 km
right ascension of ascending node: 329.5162°
argument of perigee: 178.4754°
revolutions per day: 13.46321110
mean anomaly at epoch: 181.6316°
orbit number at epoch: 92333

The dashed part of the orbit path shows where the satellite is in the earth's shadow,  

DLR